This is the latest recevied weather packets stored in our database for station/object KD2VWU. If no packets are shown the sender has not sent any weather packets the latest 10 day(s).
| Time | Temp. | Humidity | Pressure | Rain* | Wind** | Luminosity | Snow |
|---|---|---|---|---|---|---|---|
| 1777473821 | 15.56° C | 56% | 1012 hPa | 0 mm | - | - | - |
| 1777473518 | 15.56° C | 57% | 1011.9 hPa | 0 mm | - | - | - |
| 1777473213 | 15.56° C | 59% | 1011.9 hPa | 0 mm | - | - | - |
| 1777472910 | 15° C | 58% | 1011.7 hPa | 0 mm | - | - | - |
| 1777472606 | 15° C | 61% | 1011.7 hPa | 0 mm | - | - | - |
| 1777472303 | 15° C | 60% | 1011.8 hPa | 0 mm | - | - | - |
| 1777472001 | 14.44° C | 65% | 1011.9 hPa | 0 mm | - | - | - |
| 1777471696 | 14.44° C | 61% | 1012 hPa | 0 mm | - | - | - |
| 1777471393 | 14.44° C | 63% | 1011.8 hPa | 0 mm | - | - | - |
| 1777471089 | 13.89° C | 63% | 1012 hPa | 0 mm | - | - | - |
| 1777470786 | 13.89° C | 64% | 1012.1 hPa | 0 mm | - | - | - |
| 1777470483 | 13.33° C | 64% | 1012.3 hPa | 0 mm | - | - | - |
| 1777470179 | 13.33° C | 64% | 1012.1 hPa | 0 mm | - | - | - |
| 1777469875 | 13.33° C | 65% | 1012.3 hPa | 0 mm | - | - | - |
| 1777469571 | 12.78° C | 67% | 1012.4 hPa | 0 mm | - | - | - |
| 1777469266 | 12.78° C | 66% | 1012.2 hPa | 0 mm | - | - | - |
| 1777468962 | 12.78° C | 71% | 1012.5 hPa | 0 mm | - | - | - |
| 1777468657 | 12.22° C | 69% | 1012.7 hPa | 0 mm | - | - | - |
| 1777468354 | 12.22° C | 67% | 1012.7 hPa | 0 mm | - | - | - |
| 1777468050 | 12.22° C | 68% | 1012.8 hPa | 0 mm | - | - | - |
| 1777467746 | 11.67° C | 68% | 1012.7 hPa | 0 mm | - | - | - |
| 1777467441 | 11.67° C | 70% | 1012.9 hPa | 0 mm | - | - | - |
| 1777467137 | 11.67° C | 71% | 1013.2 hPa | 0 mm | - | - | - |
| 1777466835 | 11.67° C | 73% | 1013.5 hPa | 0 mm | - | - | - |
| 1777466533 | 11.11° C | 74% | 1013.3 hPa | 0 mm | - | - | - |
* Rain latest hour (hover to see other rain measurements)
** Current wind speed in m/s (hover to see current wind gust speed)